Marshfield, WI

2:25 PM CST on December 05, 2019 (GMT -0600)
Marshfield Municipal

Weather History for KMFI - November, 2019

Change the Weather History Date:

Saturday, November 16, 2019

  Actual Average Record
Temperature  
Mean Temperature 30 °F -  
Max Temperature 37 °F 42 °F 69 °F (1953)
Min Temperature 24 °F 23 °F -9 °F (1933)
Degree Days  
Heating Degree Days 34    
Moisture  
Dew Point 24 °F    
Average Humidity 74    
Maximum Humidity 85    
Minimum Humidity 62    
Precipitation  
Precipitation 0.00 in - - ()
Sea Level Pressure  
Sea Level Pressure 30.30 in    
Wind  
Wind Speed 9 mph ()    
Max Wind Speed 17 mph    
Max Gust Speed 25 mph    
Visibility 9.0 miles    
Events      
Averages and records for this station are not official NWS values.
T = Trace of Precipitation, MM = Missing Value Source: Averaged Metar Reports

Daily Weather History Graph

Daily Weather History Graph

Search for Another Location

Airport or City:

Astronomy

Nov. 16, 2019 Rise Set
Actual Time 6:58 AM CST 4:32 PM CST
Civil Twilight 6:26 AM CST 5:03 PM CST
Nautical Twilight 5:51 AM CST 5:39 PM CST
Astronomical Twilight 5:16 AM CST 6:13 PM CST
Moon 8:00 PM CST (11/16) 10:57 AM CST (11/16)
Length of Visible Light 10h 36m
Length of Day
9h 33m
Waning Gibbous, 82% of the Moon is Illuminated
Nov 16
Waning Gibbous
Nov 19
Last Quarter
Nov 26
New
Dec 4
First Quarter
Dec 11
Full

Hourly Weather History & Observations

Time (CST) Temp. Windchill Dew Point Humidity Pressure Visibility Wind Dir Wind Speed Gust Speed Precip Events Conditions
12:54 AM 25.0 °F 16.3 °F 17.1 °F 72% 30.42 in 10.0 mi SE 8.1 mph - N/A   Clear
1:54 AM 25.0 °F 16.3 °F 18.0 °F 75% 30.42 in 10.0 mi ESE 8.1 mph - N/A   Clear
2:54 AM 24.1 °F 17.0 °F 18.0 °F 77% 30.42 in 9.0 mi ESE 5.8 mph - N/A   Clear
3:54 AM 24.1 °F 17.0 °F 18.0 °F 77% 30.41 in 9.0 mi ESE 5.8 mph - N/A   Clear
4:54 AM 24.1 °F 17.0 °F 19.0 °F 81% 30.42 in 10.0 mi SE 5.8 mph - N/A   Clear
5:54 AM 24.1 °F 16.0 °F 19.9 °F 84% 30.41 in 10.0 mi SE 6.9 mph - N/A   Clear
6:54 AM 25.0 °F 15.5 °F 21.0 °F 85% 30.40 in 10.0 mi SE 9.2 mph - N/A   Clear
7:54 AM 26.1 °F 18.4 °F 21.9 °F 84% 30.40 in 9.0 mi SE 6.9 mph - N/A   Clear
8:54 AM 30.0 °F 21.1 °F 24.1 °F 79% 30.38 in 10.0 mi SSE 10.4 mph 20.7 mph N/A   Clear
9:31 AM 32.0 °F 23.0 °F 25.0 °F 75% 30.32 in 10.0 mi SSE 11.5 mph - N/A   Mostly Cloudy
9:54 AM 33.1 °F 22.6 °F 26.1 °F 75% 30.37 in 10.0 mi South 16.1 mph - N/A   Mostly Cloudy
10:17 AM 33.1 °F 22.2 °F 26.1 °F 75% 30.31 in 10.0 mi SSE 17.3 mph 25.3 mph N/A   Partly Cloudy
10:54 AM 36.0 °F 26.7 °F 27.0 °F 70% 30.35 in 10.0 mi SSE 15.0 mph 20.7 mph N/A   Clear
11:54 AM 36.0 °F 26.0 °F 27.0 °F 70% 30.31 in 10.0 mi South 17.3 mph - N/A   Clear
12:54 PM 36.0 °F 26.7 °F 26.1 °F 67% 30.28 in 10.0 mi SSE 15.0 mph - N/A   Clear
1:54 PM 37.0 °F 28.1 °F 25.0 °F 62% 30.25 in 10.0 mi SSE 15.0 mph - N/A   Partly Cloudy
2:54 PM 37.9 °F 31.5 °F 26.1 °F 62% 30.23 in 10.0 mi SSE 9.2 mph 21.9 mph N/A   Clear
3:54 PM 37.0 °F 28.9 °F 25.0 °F 62% 30.21 in 9.0 mi SSE 12.7 mph - N/A   Clear
4:54 PM 36.0 °F 27.1 °F 26.1 °F 67% 30.19 in 9.0 mi SSE 13.8 mph - N/A   Clear
5:54 PM 35.1 °F 26.9 °F 26.1 °F 70% 30.19 in 9.0 mi SSE 11.5 mph - N/A   Scattered Clouds
6:54 PM 34.0 °F 25.0 °F 26.1 °F 73% 30.17 in 8.0 mi SSE 12.7 mph - N/A   Clear
8:54 PM 33.1 °F 23.9 °F 26.1 °F 75% 30.15 in 7.0 mi SSE 12.7 mph - N/A   Clear
9:54 PM 33.1 °F 23.4 °F 26.1 °F 75% 30.14 in 6.0 mi SSE 13.8 mph - N/A   Haze
10:54 PM 32.0 °F 23.0 °F 26.1 °F 79% 30.12 in 5.0 mi South 11.5 mph - N/A   Haze
11:54 PM 32.0 °F 24.8 °F 26.1 °F 79% 30.12 in 5.0 mi South 8.1 mph - N/A   Haze